This is the latest recevied weather packets stored in our database for station/object OK3MS-5. If no packets are shown the sender has not sent any weather packets the latest 10 day(s).
| Time | Temp. | Humidity | Pressure | Rain* | Wind** | Luminosity | Snow |
|---|---|---|---|---|---|---|---|
| 1787986205 | 16.67° C | 88% | 1016 hPa | 0 mm | - | 214 W/m² | - |
| 1787985903 | 16.67° C | 88% | 1016 hPa | 0 mm | - | 200 W/m² | - |
| 1787985603 | 16.67° C | 89% | 1015.9 hPa | 0 mm | - | 185 W/m² | - |
| 1787985304 | 16.67° C | 90% | 1015.8 hPa | 0 mm | - | 172 W/m² | - |
| 1787985003 | 16.11° C | 90% | 1016 hPa | 0 mm | - | 158 W/m² | - |
| 1787984707 | 16.11° C | 91% | 1016 hPa | 0 mm | - | 144 W/m² | - |
| 1787984403 | 15.56° C | 92% | 1016 hPa | 0 mm | - | 129 W/m² | - |
| 1787984102 | 15.56° C | 92% | 1015.9 hPa | 0 mm | - | 119 W/m² | - |
| 1787983804 | 15.56° C | 92% | 1015.9 hPa | 0 mm | - | 107 W/m² | - |
| 1787983504 | 15.56° C | 94% | 1016 hPa | 0 mm | - | 94 W/m² | - |
| 1787983203 | 15° C | 94% | 1016.2 hPa | 0 mm | - | 83 W/m² | - |
| 1787982904 | 15° C | 95% | 1016.2 hPa | 0 mm | - | 71 W/m² | - |
| 1787982606 | 15° C | 96% | 1016.2 hPa | 0 mm | - | 70 W/m² | - |
| 1787982303 | 15° C | 96% | 1016.3 hPa | 0 mm | - | 39 W/m² | - |
| 1787982003 | 15° C | 96% | 1016.3 hPa | 0 mm | - | 40 W/m² | - |
| 1787981706 | 15° C | 96% | 1016.3 hPa | 0 mm | - | 37 W/m² | - |
| 1787981402 | 15° C | 97% | 1016.2 hPa | 0 mm | - | 39 W/m² | - |
| 1787981103 | 15° C | 97% | 1016.3 hPa | 0 mm | - | 49 W/m² | - |
| 1787980808 | 14.44° C | 98% | 1016.2 hPa | 0 mm | - | 52 W/m² | - |
| 1787980509 | 14.44° C | 98% | 1016.3 hPa | 0 mm | - | 30 W/m² | - |
| 1787980205 | 14.44° C | 98% | 1016.4 hPa | 0 mm | - | 32 W/m² | - |
| 1787979907 | 14.44° C | 97% | 1016.3 hPa | 0 mm | - | 30 W/m² | - |
| 1787979603 | 15° C | 97% | 1016.2 hPa | 0 mm | - | 30 W/m² | - |
| 1787979303 | 15° C | 97% | 1016.1 hPa | 0 mm | - | 27 W/m² | - |
| 1787979004 | 15° C | 97% | 1016.1 hPa | 0 mm | - | 22 W/m² | - |
* Rain latest hour (hover to see other rain measurements)
** Current wind speed in m/s (hover to see current wind gust speed)